Location: Apeadero de Los Molinos-Guadarrama
(40.7091°N, 4.0689°W)
Time: 13:18:40
(UTC+00:00)

Cosmos 1437 - Pass Details

Date: 14 May 2021
Orbit: 337 x 343 km, 81.2° (Epoch: 18 June)

Event Time Altitude Azimuth Distance (km) Brightness Sun altitude
Exits shadow 20:41:42 - 192° (SSW) 1,499 5.3 -12.9°
Reaches altitude 10° 20:42:07 10° 192° (SSW) 1,319 5.0 -13.0°
Maximum altitude 20:44:58 78° 278° (W) 367 2.5 -13.4°
Drops below altitude 10° 20:47:51 10° 7° (N) 1,331 5.8 -13.8°
Sets 20:49:49 0° 8° (N) 2,179 6.9 -14.1°
